Willimantic, CT

8:55 AM EST on December 08, 2019 (GMT -0500)
Windham

Weather History for KIJD - October, 2019

Change the Weather History Date:

Tuesday, October 29, 2019

  Actual Average Record
Temperature  
Mean Temperature 50 °F -  
Max Temperature 55 °F 59 °F 79 °F (1989)
Min Temperature 46 °F 31 °F 18 °F (1976)
Degree Days  
Heating Degree Days 14    
Moisture  
Dew Point 51 °F    
Average Humidity 96    
Maximum Humidity 100    
Minimum Humidity 89    
Precipitation  
Precipitation 0.01 in - - ()
Sea Level Pressure  
Sea Level Pressure 30.33 in    
Wind  
Wind Speed 2 mph ()    
Max Wind Speed 6 mph    
Max Gust Speed -    
Visibility 6.1 miles    
Events Rain    
Averages and records for this station are not official NWS values.
T = Trace of Precipitation, MM = Missing Value Source: Averaged Metar Reports

Daily Weather History Graph

Daily Weather History Graph

Search for Another Location

Airport or City:

Astronomy

Oct. 29, 2019 Rise Set
Actual Time 7:16 AM EDT 5:47 PM EDT
Civil Twilight 6:48 AM EDT 6:15 PM EDT
Nautical Twilight 6:15 AM EDT 6:48 PM EDT
Astronomical Twilight 5:43 AM EDT 7:20 PM EDT
Moon 8:47 AM EDT (10/29) 7:08 PM EDT (10/29)
Length of Visible Light 11h 27m
Length of Day
10h 30m
Waxing Crescent, 3% of the Moon is Illuminated
Oct 29
Waxing Crescent
Nov 4
First Quarter
Nov 12
Full
Nov 19
Last Quarter
Nov 26
New

Hourly Weather History & Observations

Time (EDT) Temp. Dew Point Humidity Pressure Visibility Wind Dir Wind Speed Gust Speed Precip Events Conditions
12:23 AM 48.9 °F 46.0 °F 90% 30.34 in 10.0 mi Calm Calm - N/A   Overcast
12:52 AM 48.9 °F 46.0 °F 90% 30.35 in 10.0 mi NE 3.5 mph - N/A   Overcast
1:52 AM 48.9 °F 46.9 °F 93% 30.36 in 6.0 mi Calm Calm - N/A   Overcast
2:32 AM 48.9 °F 46.9 °F 93% 30.35 in 10.0 mi Calm Calm - N/A   Overcast
2:52 AM 48.9 °F 46.9 °F 93% 30.35 in 10.0 mi NE 3.5 mph - N/A   Overcast
3:52 AM 48.0 °F 46.9 °F 96% 30.35 in 6.0 mi Calm Calm - N/A   Overcast
4:52 AM 46.9 °F 46.0 °F 97% 30.35 in 10.0 mi Calm Calm - N/A   Overcast
5:52 AM 48.0 °F 46.9 °F 96% 30.35 in 6.0 mi Calm Calm - N/A   Overcast
6:13 AM 48.0 °F 46.9 °F 96% 30.34 in 10.0 mi Calm Calm - N/A   Overcast
6:42 AM 48.0 °F 48.0 °F 100% 30.34 in 7.0 mi Calm Calm - N/A   Overcast
6:52 AM 48.9 °F 48.0 °F 97% 30.34 in 8.0 mi NNE 3.5 mph - N/A   Overcast
7:16 AM 48.9 °F 48.0 °F 97% 30.36 in 10.0 mi North 3.5 mph - N/A   Overcast
7:23 AM 48.9 °F 48.0 °F 97% 30.36 in 10.0 mi North 3.5 mph - N/A   Overcast
7:42 AM 48.9 °F 48.0 °F 97% 30.36 in 10.0 mi Calm Calm - N/A   Overcast
7:52 AM 48.9 °F 48.0 °F 97% 30.37 in 7.0 mi Calm Calm - N/A   Overcast
8:14 AM 48.9 °F 48.9 °F 100% 30.35 in 2.0 mi ENE 5.8 mph - N/A   Overcast
8:52 AM 50.0 °F 48.9 °F 96% 30.36 in 2.0 mi Variable 3.5 mph - N/A   Overcast
9:03 AM 50.0 °F 50.0 °F 100% 30.36 in 6.0 mi Calm Calm - N/A   Overcast
9:52 AM 51.1 °F 48.9 °F 92% 30.36 in 9.0 mi Variable 5.8 mph - N/A   Overcast
10:52 AM 52.0 °F 48.9 °F 89% 30.37 in 6.0 mi Variable 3.5 mph - N/A   Overcast
11:20 AM 52.0 °F 51.1 °F 97% 30.36 in 2.0 mi East 5.8 mph - N/A   Overcast
11:30 AM 52.0 °F 51.1 °F 97% 30.36 in 3.0 mi ENE 5.8 mph - N/A   Overcast
11:52 AM 53.1 °F 51.1 °F 93% 30.37 in 6.0 mi ENE 4.6 mph - N/A   Overcast
12:52 PM 54.0 °F 51.1 °F 90% 30.34 in 6.0 mi Variable 5.8 mph - N/A   Overcast
1:06 PM 53.1 °F 51.1 °F 93% 30.33 in 2.5 mi Variable 4.6 mph - N/A   Overcast
1:21 PM 54.0 °F 52.0 °F 93% 30.33 in 3.0 mi Calm Calm - N/A   Overcast
1:52 PM 55.0 °F 52.0 °F 89% 30.32 in 8.0 mi Calm Calm - N/A   Overcast
2:14 PM 54.0 °F 52.0 °F 93% 30.31 in 2.5 mi SE 3.5 mph - N/A   Overcast
2:24 PM 55.0 °F 53.1 °F 93% 30.31 in 1.8 mi East 3.5 mph - N/A   Overcast
2:36 PM 54.0 °F 53.1 °F 97% 30.31 in 3.0 mi East 3.5 mph - N/A   Overcast
2:52 PM 54.0 °F 53.1 °F 97% 30.31 in 5.0 mi East 4.6 mph - N/A   Overcast
3:34 PM 55.0 °F 53.1 °F 93% 30.30 in 2.5 mi ENE 4.6 mph - N/A   Overcast
3:39 PM 55.0 °F 53.1 °F 93% 30.30 in 3.0 mi ENE 3.5 mph - N/A   Overcast
3:52 PM 55.0 °F 54.0 °F 96% 30.30 in 5.0 mi East 4.6 mph - N/A   Overcast
4:13 PM 55.0 °F 53.1 °F 93% 30.30 in 5.0 mi NE 3.5 mph - N/A   Overcast
4:31 PM 55.9 °F 53.1 °F 90% 30.30 in 10.0 mi Calm Calm - N/A   Overcast
4:52 PM 55.9 °F 53.1 °F 90% 30.31 in 10.0 mi North 3.5 mph - N/A   Overcast
5:33 PM 55.0 °F 54.0 °F 96% 30.29 in 4.0 mi Calm Calm - 0.00 in   Overcast
5:44 PM 55.0 °F 54.0 °F 96% 30.30 in 2.5 mi Calm Calm - 0.00 in   Overcast
5:50 PM 55.4 °F 53.6 °F 94% 30.29 in 3.0 mi Variable 3.5 mph - 0.00 in   Overcast
6:01 PM 55.0 °F 54.0 °F 96% 30.30 in 2.5 mi Calm Calm - N/A   Overcast
6:08 PM 55.0 °F 54.0 °F 96% 30.30 in 4.0 mi Calm Calm - N/A   Overcast
6:43 PM 55.0 °F 54.0 °F 96% 30.30 in 6.0 mi Calm Calm - 0.00 in Rain Light Rain
7:27 PM 55.0 °F 54.0 °F 96% 30.31 in 10.0 mi Calm Calm - 0.00 in   Overcast
7:50 PM 53.6 °F 53.6 °F 100% 30.32 in 10.0 mi Calm Calm - 0.00 in   Overcast
7:52 PM 54.0 °F 54.0 °F 100% 30.32 in 10.0 mi Calm Calm - 0.00 in   Overcast
8:10 PM 54.0 °F 54.0 °F 100% 30.31 in 10.0 mi NE 3.5 mph - N/A   Overcast
8:33 PM 54.0 °F 54.0 °F 100% 30.31 in 9.0 mi Calm Calm - N/A   Overcast
8:50 PM 53.6 °F 53.6 °F 100% 30.32 in 5.0 mi Calm Calm - 0.00 in Rain Light Rain
8:52 PM 54.0 °F 54.0 °F 100% 30.32 in 4.0 mi Calm Calm - 0.00 in Rain Light Rain
9:52 PM 54.0 °F 54.0 °F 100% 30.31 in 9.0 mi ENE 3.5 mph - 0.01 in   Overcast
10:52 PM 54.0 °F 54.0 °F 100% 30.32 in 4.0 mi Calm Calm - N/A   Overcast
11:03 PM 54.0 °F 54.0 °F 100% 30.31 in 2.5 mi Calm Calm - 0.00 in Rain Light Rain
11:25 PM 54.0 °F 54.0 °F 100% 30.31 in 4.0 mi Calm Calm - 0.00 in   Overcast
11:52 PM 54.0 °F 54.0 °F 100% 30.32 in 5.0 mi Calm Calm - 0.00 in   Overcast